FALCON 9 R/B, 44869

Orbit data source: Space-Track

FALCON 9 R/B, 44869 is space debris in HEO originally from a launch on Tue, 17 Dec 2019 UTC launched from the Air Force Eastern Test Range (AFETR). Debris objects in space refer to the collection of defunct objects orbiting the Earth. Examples of debris include non-operational satellites, rocket bodies, and fragments generated from explosions, collisions, or faulty payload assembly.

Loading next visibility...
Identifier
44869, 2019-091B
Orbit
HEO
Country
Flag of USUS
Related business
Manufacturer
SpaceX
Mission
Spacecraft
Bus & Motor
F9ST2, Unknown motor
Mass
~4,000 kg wet, ~4,000 kg dry
Launch date (UTC)
2019-12-17 (6 years ago)
Launch vehicle
Unknown
Launch site
Air Force Eastern Test Range (AFETR)
Object type
Payload
Rocket body
Debris
Shape & HBR
Cyl, 7.8 m
Radar Cross Section
39.980 m², Large (>1 m²)

Expand to show TLE details & history
Last TLE update: 15 hours ago

TLE from 15 hours ago
0 FALCON 9 R/B
1 44869U 19091B   26124.62863913  .00003576  00000-0  91254-3 0  9999
2 44869  26.9305 242.5693 5812751   1.6283 359.6101  4.30976195 97216
Epoch: 2026-05-04T15:05Z
TLE epoch observation values (Epoch: 2026-05-04T15:05:14.420Z)
Latitude
Longitude
153.74042°
Altitude
296.001 km
Speed
9.719 km/s
True Right ascension
16h 10m 15s
True Declination
0° 00' 00"
Sunlit
Object was in full shadow at epoch
Visualization orbit readout
Latitude
Unknown
Longitude
Unknown
Altitude
Unknown
Speed
Unknown
Apparent Right ascension
Unknown
Apparent Declination
Unknown
Sunlit
N/A
Visualization observer readout
Local Sidereal Time
14:07:20
Azimuth
Unknown
Elevation
Unknown
Doppler factor
Unknown
Orbital elements
Apogee altitude
18,849.155 km
Perigee altitude
302.102 km
Semi-major axis
15,953.765 km
Eccentricity
0.58128
Inclination
26.9305°
RAAN
242.5693°
Arg. of periapsis
1.6283°
True anomaly
358.1907°
Mean anomaly
359.6101°
Eccentric anomaly
359.0689°
Mean motion
1.07708 °/min
Orbital period
334.24 mins
BSTAR
0.00091254
Loading maneuver chart data...
Computing Atmospheric mass density...
Loading historical data...
Loading historical data...
Loading historical data...
Loading historical data...
Loading historical data...
Loading historical data...
Loading historical data...
Other satellites on launch #91 in the year 2019 (2019-12-17 UTC)

Documentation

Showing up to 5 results
|